RH
54 54 51 52 53 58 64 66 72 73 70 66 59 55 56 65 66 66 70 70 72 76 75 73 72 68 64 65 69 71 70 68 71 82 83 76 75 76 76 75 80 83 83 83 83 84 81 78 76 78 81 86 89 89 91 92 96 96 96 98 99 97 88 80 78 78 65 50 41 40 41 34 28 25 31 42 45 46 49 51 53 57 59 59 58 56 55 52 46 40 34 28 20 13 8 5 5
56 56 53 55 56 61 73 74 75 70 61 59 58 60 65 70 69 71 74 74 74 75 75 73 74 72 69 70 68 67 67 68 71 79 79 73 75 75 75 76 81 85 86 87 87 88 84 80 77 78 83 89 92 90 90 94 99 97 96 99 100 96 89 80 69 71 65 46 35 29 24 20 20 15 17 31 42 47 48 49 50 52 53 53 53 48 44 39 32 26 20 14 9 6 5 5 5
60 60 59 61 64 66 73 76 76 69 60 57 58 65 69 73 73 74 74 72 72 69 71 70 71 71 72 73 73 76 72 72 76 79 78 76 78 74 76 79 80 84 85 89 91 91 88 83 79 80 84 90 94 95 94 98 100 98 99 99 100 96 91 83 62 56 62 63 58 45 31 20 12 9 9 14 25 36 39 39 40 40 41 39 36 30 24 20 15 12 9 6 5 5 5 5 5
68 67 67 68 73 77 81 83 82 75 69 63 61 67 71 77 79 80 74 67 68 65 66 66 67 67 70 75 76 80 76 77 80 81 82 77 79 77 77 80 82 85 86 90 93 92 89 86 82 81 85 90 93 94 95 100 99 98 100 99 99 95 90 84 62 46 47 56 63 57 51 45 27 10 6 7 11 17 19 19 22 23 23 21 16 12 9 8 7 5 5 5 5 4 5 5 5
71 72 74 75 80 84 87 87 84 77 72 70 67 70 72 77 85 85 73 63 61 60 57 54 59 58 59 65 70 78 78 82 80 80 84 78 79 78 77 82 85 87 89 92 92 92 88 87 84 81 84 90 93 92 94 100 100 98 99 99 100 95 89 85 68 51 44 39 39 42 47 55 50 31 15 9 7 8 8 8 9 9 9 8 6 6 6 5 5 5 5 5 5 5 5 5 5
66 70 74 78 82 81 84 85 82 76 73 76 76 75 74 79 85 77 68 64 55 52 50 46 49 49 49 48 55 71 75 83 82 80 84 81 81 79 80 83 86 87 89 90 88 88 86 87 85 80 83 91 95 92 94 100 100 97 97 99 100 98 94 90 78 64 55 41 26 23 24 27 35 38 32 21 15 12 9 7 7 7 7 7 7 6 6 6 6 6 6 5 5 5 5 6 5
67 73 78 85 87 81 83 83 78 75 74 78 77 76 79 79 73 62 64 70 59 49 48 45 42 42 48 45 50 62 67 80 80 81 84 83 83 82 83 84 87 88 88 90 89 88 87 87 84 79 80 88 95 91 92 99 99 96 97 99 99 100 98 93 90 83 70 50 26 16 15 10 10 18 24 21 18 17 13 11 10 10 10 9 10 10 9 8 8 8 8 8 7 7 7 7 7
62 71 76 81 87 86 86 83 76 72 72 74 72 69 69 61 54 54 58 67 64 51 48 46 40 41 45 40 47 54 59 75 77 79 82 80 81 81 83 84 86 87 89 92 93 93 91 90 88 83 79 84 94 93 94 97 97 96 95 95 98 100 98 92 93 93 82 59 31 17 17 18 18 13 14 15 15 16 15 14 13 13 14 14 14 13 13 11 11 11 10 10 10 10 10 10 10
49 59 69 70 78 86 86 81 71 67 71 72 70 68 59 48 44 46 47 56 60 50 47 48 42 41 41 33 39 46 54 68 68 71 74 73 75 75 79 81 83 83 86 87 91 95 92 91 90 89 87 89 94 95 96 97 95 93 93 93 97 100 97 94 91 92 86 67 40 23 22 30 36 26 22 25 22 24 24 23 20 18 16 15 16 14 14 14 13 13 12 12 11 11 11 11 10
41 50 58 64 73 81 78 68 60 60 69 69 66 67 57 46 43 41 40 43 47 46 45 47 45 40 39 37 38 40 48 58 60 64 64 65 65 66 73 78 83 84 85 84 87 90 89 89 89 93 95 93 92 90 91 97 97 91 93 96 97 98 99 98 94 92 89 78 61 43 30 29 40 39 38 42 41 42 44 39 30 30 31 25 21 16 15 14 14 13 13 12 12 12 12 12 11
41 51 50 63 71 70 64 56 56 57 64 61 60 69 53 34 35 33 32 35 36 40 41 43 46 41 35 35 37 38 47 54 53 55 55 57 60 61 67 73 80 83 86 87 87 87 85 88 90 94 97 95 91 89 88 91 96 92 93 96 96 96 98 101 96 91 88 86 83 75 60 42 39 42 46 50 50 52 59 59 41 29 34 37 31 22 17 15 14 13 13 12 12 12 11 11 11
35 49 54 74 71 59 57 58 64 59 55 51 56 69 45 18 21 18 22 32 25 29 35 33 36 38 32 35 47 41 42 50 44 47 51 54 60 62 64 66 71 73 77 80 84 86 86 89 93 94 97 99 94 92 93 91 92 92 95 96 96 98 99 100 94 87 81 80 83 85 82 69 60 56 55 56 56 59 65 70 63 42 27 27 29 24 21 20 19 15 13 12 11 12 12 12 11
33 47 58 80 72 62 64 63 64 58 53 53 60 61 33 13 15 13 16 19 18 36 40 22 20 25 20 26 49 47 41 49 45 48 51 51 54 54 55 56 59 62 65 68 73 81 88 92 94 95 97 100 97 95 96 95 92 92 97 98 98 100 100 98 91 84 78 77 80 81 80 77 76 71 65 61 55 53 51 48 55 56 39 24 22 22 21 23 25 23 19 17 15 13 12 11 12
32 40 48 71 71 67 67 59 55 54 49 48 55 44 20 15 16 16 16 14 26 48 38 19 16 19 25 35 58 65 54 53 51 51 50 49 48 46 46 46 47 50 54 60 65 74 83 88 92 96 97 100 99 96 96 97 96 95 98 100 100 100 100 96 89 85 81 79 80 79 77 73 71 65 58 52 40 32 29 23 26 36 36 27 22 22 21 21 22 22 22 22 23 25 24 19 14
22 23 36 66 65 58 62 62 58 52 44 44 51 35 18 19 18 18 20 20 29 32 23 22 22 23 41 53 62 60 49 49 50 50 49 48 47 45 45 43 43 42 44 49 57 65 71 78 87 93 95 99 100 98 98 98 99 99 99 100 100 100 99 93 87 86 84 82 80 78 75 69 64 60 54 48 39 29 22 19 20 22 24 23 23 23 23 21 19 18 18 19 21 25 31 29 20
16 14 41 70 59 49 54 62 61 51 43 45 47 29 17 24 23 20 21 22 25 23 22 26 25 25 34 40 41 36 40 49 46 44 44 44 44 44 44 42 43 42 41 40 45 54 62 68 76 85 90 94 97 99 99 98 99 99 100 100 100 99 97 93 84 80 81 79 76 73 70 65 59 55 52 45 40 34 26 21 20 21 22 23 24 24 24 23 22 20 19 18 18 18 21 22 19
15 15 44 64 55 50 51 55 52 44 41 39 41 32 18 23 29 23 20 22 22 23 24 24 25 26 26 29 32 29 37 42 36 37 35 34 33 32 32 31 32 34 37 37 37 42 52 62 66 74 87 93 93 95 98 98 98 99 100 99 99 96 94 92 80 72 72 69 67 65 65 64 58 51 45 41 37 32 28 24 20 20 21 22 23 25 25 25 24 23 21 20 20 19 18 18 18
17 28 53 56 46 43 48 52 39 35 40 35 37 36 21 19 28 26 20 20 21 23 24 23 21 20 19 24 27 26 32 31 26 26 24 22 20 17 17 16 17 19 23 28 32 34 39 53 62 66 78 91 93 94 98 98 97 99 97 94 98 96 93 90 77 69 69 65 64 63 65 64 56 49 40 35 35 30 27 25 22 21 21 21 22 22 24 25 26 24 23 23 22 21 20 20 19
17 39 61 52 39 38 42 38 23 26 32 26 24 24 21 18 20 22 19 18 19 22 23 25 25 25 24 25 28 26 25 26 25 22 20 19 16 14 13 11 12 12 13 15 22 29 31 40 56 65 70 80 89 93 95 95 93 94 94 93 92 91 90 85 76 73 73 72 69 63 64 62 50 42 38 33 31 28 26 26 24 23 22 22 22 22 23 24 27 26 25 24 23 23 21 21 21
19 33 46 41 37 37 33 26 18 20 20 18 17 16 18 17 16 17 17 16 14 14 20 29 34 36 39 39 38 30 20 20 21 19 19 17 15 14 13 13 12 12 13 12 14 21 27 30 42 61 70 72 80 92 93 88 85 85 91 90 83 83 83 79 77 77 75 73 70 61 56 54 44 37 35 31 28 26 25 26 25 25 24 23 23 22 23 24 26 28 27 26 24 24 22 21 22
24 24 25 30 35 28 23 25 18 15 17 15 16 15 16 16 15 14 14 13 9 10 19 28 29 32 38 33 26 24 15 12 14 14 15 14 14 13 13 14 13 13 13 13 12 14 21 26 33 50 65 69 75 88 94 88 83 79 78 79 80 82 81 78 78 77 74 72 68 57 49 49 42 34 34 31 29 28 26 27 26 25 25 25 25 24 24 24 25 28 28 27 26 25 24 22 22
18 15 16 23 26 21 18 21 15 13 16 13 14 15 14 14 11 11 12 10 6 8 14 18 19 21 24 17 12 14 12 11 13 12 13 13 13 13 14 15 15 15 14 14 14 13 16 22 29 40 56 69 74 79 85 87 86 84 80 81 85 83 79 80 80 78 78 78 69 55 46 47 42 36 35 32 31 31 29 29 27 26 26 26 26 26 26 25 26 28 29 28 27 26 25 24 23
14 14 19 21 17 16 15 15 12 12 12 10 13 13 11 11 9 9 8 7 7 9 10 12 12 12 11 10 12 13 13 14 15 15 15 14 15 15 15 16 16 16 16 15 14 14 15 17 22 30 41 57 70 76 79 81 82 84 84 82 83 81 84 91 91 87 89 88 75 60 52 48 44 41 38 35 34 33 32 31 29 28 27 27 26 26 27 26 27 28 30 30 29 28 27 26 25
12 11 17 18 12 11 11 11 9 9 10 9 11 10 9 9 7 7 6 7 10 9 9 9 8 8 7 7 9 10 12 13 14 17 17 16 17 17 18 18 18 18 17 17 17 16 16 15 18 22 28 35 51 71 80 80 79 80 77 75 81 85 89 93 93 92 96 97 85 69 61 52 47 45 42 40 37 36 36 34 33 31 29 28 26 26 27 27 27 29 30 32 31 30 28 27 26
12 11 14 14 9 9 9 8 8 8 8 8 9 8 6 7 6 5 6 8 9 8 7 7 6 6 6 5 6 6 6 8 9 11 11 13 14 16 19 20 20 20 19 20 20 19 18 17 17 17 22 23 33 63 83 82 83 85 76 74 85 92 91 89 89 94 97 100 94 79 68 58 50 48 46 44 42 40 39 38 36 34 32 30 28 27 28 28 28 29 31 32 33 31 30 29 28
15 12 12 10 7 8 7 7 7 7 7 7 7 5 5 6 5 7 12 10 7 8 7 8 8 7 7 6 5 5 5 5 5 5 6 7 8 10 13 15 17 17 18 19 18 20 20 19 18 16 19 20 25 52 78 84 86 88 80 76 81 86 88 87 89 95 99 100 98 90 78 65 53 49 49 49 48 45 44 44 41 37 36 34 33 32 31 30 30 30 32 33 34 33 32 31 29
13 9 8 8 7 7 7 6 7 6 6 6 5 4 5 6 7 12 18 12 7 8 8 8 8 7 8 7 7 7 6 6 5 5 5 5 5 6 7 9 10 12 14 15 15 16 18 18 19 18 18 20 21 30 49 72 85 82 78 79 77 82 88 90 96 99 99 100 99 97 91 76 63 56 56 56 53 51 51 50 46 43 43 42 40 38 36 35 33 33 34 34 35 35 34 32 30
8 8 7 6 6 6 5 6 6 5 5 4 4 5 5 10 14 13 12 9 7 9 8 8 8 8 8 7 7 7 7 7 7 6 6 6 6 5 6 7 7 8 10 11 13 13 14 16 17 18 19 20 20 19 25 54 82 75 68 79 80 88 95 86 89 94 92 98 99 99 97 87 76 66 63 65 61 56 56 55 52 50 50 50 48 46 44 41 38 38 37 37 37 37 36 34 32
7 7 6 5 6 6 5 5 5 4 4 4 4 6 10 17 20 14 9 9 8 8 8 8 8 8 8 8 8 8 8 7 7 7 7 7 7 7 6 7 6 6 7 8 10 10 11 13 15 16 17 18 20 22 21 34 59 53 50 79 84 83 91 79 78 88 88 92 94 93 96 95 91 78 69 72 70 64 64 61 56 54 52 52 52 52 53 48 44 43 41 40 39 39 38 37 34
7 7 5 4 7 12 10 5 5 4 5 6 5 9 17 21 20 15 10 9 8 8 8 8 8 8 8 9 8 8 8 8 8 8 8 8 7 8 7 7 7 6 6 7 7 8 9 9 10 10 11 13 16 21 22 23 34 32 41 79 86 78 88 83 78 89 94 92 91 92 96 99 99 87 70 71 73 70 72 71 65 59 53 51 52 53 54 52 49 49 47 44 41 41 41 39 37
7 7 9 10 12 18 13 5 6 6 5 7 5 9 20 23 18 13 9 8 8 8 8 8 8 9 9 9 8 8 8 8 8 8 8 8 8 8 8 7 7 6 6 7 6 7 9 7 5 5 5 7 10 15 21 22 30 41 49 66 75 75 80 79 76 85 97 97 92 94 99 100 98 91 77 71 77 77 76 78 74 65 56 56 56 55 56 53 53 54 52 49 45 44 43 42 40
10 9 16 21 18 19 14 6 6 6 6 6 7 11 20 24 17 10 8 8 8 8 9 9 9 9 9 9 9 8 8 8 8 9 9 9 9 9 9 9 8 7 6 6 7 7 9 9 6 5 4 3 6 10 15 17 27 44 46 40 46 53 57 71 81 84 92 96 94 95 99 99 94 96 92 81 84 85 81 82 75 64 63 68 65 62 64 59 55 57 58 55 50 47 47 45 42
22 19 19 20 19 19 16 10 6 6 7 6 8 10 13 22 17 8 8 8 8 9 8 9 9 9 9 9 9 9 9 9 9 9 9 9 10 9 9 9 9 8 7 6 7 7 8 9 9 8 6 5 5 6 10 13 19 31 37 38 45 58 69 84 91 88 87 89 93 97 97 96 93 98 100 92 89 86 88 93 85 79 82 82 74 69 72 70 62 60 62 62 57 52 50 48 45
25 25 22 19 20 20 16 14 8 6 8 6 9 6 7 22 18 6 8 8 8 9 8 9 9 8 9 9 9 9 9 10 10 10 10 10 10 10 9 9 8 8 8 7 6 7 8 8 9 9 7 7 7 6 6 8 13 21 33 43 50 71 93 98 97 95 93 91 94 96 94 94 95 99 99 97 93 85 86 89 86 90 95 88 76 70 74 76 70 62 61 61 60 57 53 51 49
19 18 21 19 18 16 16 19 12 6 7 6 9 6 12 25 17 6 9 8 8 10 9 9 9 9 9 10 10 10 10 10 11 11 11 10 10 10 9 9 8 8 7 8 7 6 7 7 9 9 7 16 28 28 17 7 10 20 33 41 42 60 85 94 97 98 96 97 96 94 92 89 93 98 96 93 91 86 84 84 83 89 98 94 84 80 80 81 78 68 63 64 63 61 57 55 53
13 10 13 11 10 9 13 20 12 5 7 7 8 10 17 22 11 7 9 8 9 10 9 9 9 10 10 11 11 11 11 11 11 11 11 11 10 10 10 9 8 8 7 8 8 8 8 7 8 8 8 20 34 34 26 14 9 16 29 40 42 52 72 85 91 94 94 94 90 89 91 89 91 96 95 93 95 95 91 90 89 89 94 92 86 88 90 92 89 76 73 77 72 65 59 53 53
7 8 8 7 10 8 12 21 12 5 9 9 10 13 16 13 7 9 10 9 10 10 10 10 10 11 11 12 12 12 13 12 12 13 12 12 12 11 11 11 10 9 8 7 8 8 8 8 8 8 8 14 20 20 24 21 11 11 25 43 51 56 71 83 87 92 94 93 91 88 91 95 93 92 97 96 94 96 98 99 99 95 94 89 83 85 90 94 89 79 83 91 86 79 70 59 54
7 8 6 8 16 16 17 20 12 8 11 14 15 16 17 12 7 9 10 12 13 11 11 11 11 13 13 13 14 14 14 14 15 15 15 14 14 14 13 12 12 10 8 7 7 7 7 7 7 7 6 8 11 13 17 18 12 9 20 44 63 68 76 86 89 92 93 95 98 90 89 98 94 90 97 94 83 80 88 97 98 95 96 97 94 91 94 95 91 89 94 99 97 89 80 69 61
7 8 12 17 20 23 22 19 15 13 13 16 15 14 17 13 8 9 10 13 15 15 14 12 13 14 15 16 16 16 16 16 16 16 16 16 15 15 15 14 14 13 11 9 7 7 7 7 8 9 8 7 7 7 8 11 12 9 15 43 73 78 81 91 94 93 93 93 93 84 83 91 90 94 100 96 86 77 78 84 87 93 97 99 100 98 99 99 96 98 100 98 95 88 86 82 74
8 7 16 24 26 26 28 25 21 15 12 14 12 12 16 13 12 13 13 14 17 17 17 17 18 18 18 18 18 18 17 17 17 17 16 17 17 16 16 16 16 16 16 14 13 11 10 9 9 10 10 10 9 8 7 8 10 9 10 29 59 73 80 94 97 93 93 91 88 85 87 89 88 93 96 96 97 94 90 88 87 95 100 99 100 100 100 101 99 100 99 96 94 92 97 95 89
12 13 19 26 27 24 26 26 20 14 13 15 14 14 19 20 20 19 18 18 18 18 19 21 22 22 22 21 21 20 20 19 18 18 17 17 18 18 18 18 18 19 19 18 18 17 16 14 13 12 11 11 11 13 12 11 10 11 9 15 37 57 70 85 95 96 94 92 91 89 89 91 90 89 88 89 96 99 100 99 94 96 99 99 100 100 100 100 100 100 99 99 99 98 101 99 97
18 21 23 25 22 17 18 18 17 17 17 19 18 16 19 26 28 23 20 20 20 21 22 22 23 24 25 24 23 22 22 22 21 20 20 19 20 20 20 20 20 20 20 21 21 20 20 19 18 16 15 14 14 15 17 18 17 14 12 13 24 42 56 69 85 94 95 94 95 95 93 95 96 95 94 95 97 98 99 101 100 99 100 100 100 99 100 100 99 100 100 100 100 99 100 100 100
22 22 19 19 17 16 16 17 21 21 18 20 19 16 17 24 31 26 20 20 22 23 23 23 24 25 26 25 25 25 25 25 25 24 24 23 23 22 22 22 22 23 23 25 26 25 24 23 22 21 20 19 18 18 19 22 25 24 21 19 19 28 39 50 62 72 80 84 85 89 95 97 95 93 94 97 99 100 100 100 100 100 99 100 100 100 99 100 99 100 100 100 100 100 100 100 100
24 21 17 16 15 17 17 19 25 25 23 25 23 21 19 19 29 32 26 25 25 23 23 25 27 26 27 27 28 29 29 29 30 30 30 31 32 31 29 27 27 28 30 31 32 31 30 28 27 26 25 24 23 23 23 23 26 28 29 29 27 27 30 36 43 49 55 63 70 80 90 93 91 88 88 90 93 97 99 99 99 100 100 100 100 99 99 100 99 99 100 100 100 100 100 100 100
20 17 17 18 17 18 18 19 25 27 29 29 24 24 22 19 29 35 33 31 25 23 25 26 27 27 28 31 32 32 33 34 36 37 40 43 44 43 41 40 40 39 38 38 37 36 35 34 33 32 31 32 31 30 29 28 28 29 31 34 35 35 34 34 36 38 41 46 55 68 79 85 86 84 82 85 89 92 94 94 94 96 99 100 99 97 96 99 100 99 99 100 100 100 100 99 99
17 17 17 18 16 15 17 21 27 32 34 31 25 24 22 20 30 38 37 32 25 24 26 25 24 25 27 30 32 33 35 38 41 44 49 51 50 50 51 51 51 50 47 46 45 44 43 40 38 38 37 37 37 37 36 35 33 32 33 35 38 40 41 42 42 43 43 43 45 51 60 69 77 82 83 85 88 91 91 90 89 91 95 98 100 96 92 95 100 100 100 100 100 100 100 99 100
16 17 16 17 16 16 23 28 30 33 32 28 25 25 22 19 29 38 37 32 27 27 26 24 26 28 30 32 33 34 35 37 41 45 49 51 51 52 53 53 52 52 51 50 49 47 46 45 43 41 40 39 39 40 42 42 41 38 36 35 37 40 44 46 49 50 52 53 53 53 55 58 63 71 76 80 85 92 94 92 90 90 91 93 96 97 92 91 94 96 98 100 100 100 99 99 99
16 16 19 22 21 21 27 31 33 32 27 23 24 25 23 21 28 33 31 28 27 26 25 26 29 32 35 36 36 37 38 40 43 43 44 45 46 48 47 48 49 49 49 49 48 47 45 44 43 43 42 42 41 41 42 44 46 47 46 42 37 37 41 45 50 54 56 59 61 63 66 66 65 65 66 67 71 79 85 88 89 89 89 88 88 89 89 88 87 87 90 93 98 99 99 101 100
19 20 25 27 23 21 24 24 26 26 22 22 25 27 24 22 27 29 26 26 25 25 27 29 33 37 38 37 38 40 43 46 47 46 45 43 42 41 39 39 40 40 42 43 44 45 44 42 40 40 40 40 40 40 41 41 43 46 50 51 49 43 40 41 44 49 54 58 61 64 67 71 72 71 69 68 66 67 70 72 74 76 78 78 79 79 78 79 81 81 81 85 89 92 94 95 94
25 26 28 27 23 27 30 24 22 22 22 23 26 29 25 24 31 31 26 27 27 27 30 35 39 41 40 41 44 47 50 52 52 51 49 46 45 43 41 40 38 37 36 36 37 37 38 39 38 37 36 36 36 36 38 40 42 43 44 47 52 53 50 45 42 42 44 48 52 56 60 63 66 68 68 67 65 65 66 68 68 68 68 69 71 72 72 73 75 76 76 78 79 81 83 83 82
25 26 25 25 25 30 34 29 27 30 28 25 27 30 27 29 38 35 27 28 30 32 37 40 42 42 47 54 57 59 61 59 57 55 53 51 49 45 40 36 33 32 31 29 27 25 25 27 29 31 33 32 32 31 32 35 39 42 42 41 44 49 54 55 53 48 45 43 42 45 48 50 53 57 59 59 59 59 61 63 63 62 64 66 66 66 66 67 69 70 71 73 75 75 76 76 77
27 26 24 28 28 28 30 28 29 32 32 30 29 30 29 31 35 31 29 32 34 38 42 42 43 49 58 64 65 64 62 58 56 54 52 48 41 33 26 21 17 16 17 16 16 15 16 17 19 23 27 29 30 28 25 25 27 32 37 39 41 44 48 53 56 58 56 53 49 45 44 44 44 46 48 49 51 51 51 52 52 52 53 55 56 56 55 55 56 57 58 59 62 65 65 65 66
29 28 27 30 30 29 30 29 29 31 34 34 28 27 30 33 36 38 38 39 39 40 44 50 57 62 66 66 64 60 58 59 58 54 47 38 30 23 17 14 13 11 11 11 12 12 12 13 15 17 18 19 19 18 16 15 15 18 22 28 37 47 54 58 60 63 63 62 61 58 54 51 48 47 48 49 50 50 49 47 47 48 48 48 48 49 49 48 48 48 49 49 50 53 55 53 54
31 32 31 32 32 31 30 32 34 36 38 35 28 29 32 32 41 50 46 44 48 50 58 68 71 69 68 65 59 55 57 60 56 47 38 30 24 22 19 17 16 14 14 15 15 15 14 12 12 12 11 11 10 9 9 9 9 11 13 16 22 34 48 61 69 74 74 73 72 71 68 64 61 57 54 54 54 55 55 53 51 50 51 50 50 50 49 48 48 47 48 49 49 50 50 49 50
34 35 34 34 35 33 31 35 42 45 46 41 34 34 34 35 47 54 51 56 65 67 73 79 74 68 65 61 58 56 55 52 44 35 31 28 26 25 23 22 21 21 21 22 22 22 20 18 15 14 13 12 12 10 9 9 9 10 11 13 14 17 23 35 49 64 76 83 84 84 83 80 76 72 68 64 61 59 59 59 59 58 58 58 57 57 56 54 54 53 53 53 53 55 55 54 55
38 37 35 37 40 39 39 42 45 46 45 43 41 35 32 42 55 58 59 66 71 71 75 76 70 65 61 60 63 60 52 44 36 30 28 28 29 29 28 28 29 32 33 32 32 30 28 27 25 23 22 19 17 16 15 14 13 12 12 13 15 16 16 17 21 31 45 61 74 83 89 91 90 87 83 79 76 71 68 65 63 64 64 65 65 65 65 64 63 62 61 61 61 61 61 61 62
38 39 41 45 47 47 47 44 44 46 41 41 43 35 33 50 60 61 66 72 70 70 73 70 65 62 63 65 63 54 44 38 33 32 34 33 32 32 34 36 38 42 44 44 43 41 39 38 36 35 34 31 28 25 23 20 18 17 16 15 16 17 19 19 18 18 20 26 37 50 64 77 87 93 94 94 93 89 86 81 76 74 71 70 70 70 71 71 71 70 69 69 69 69 68 68 69
35 41 46 50 53 52 48 40 40 49 46 44 47 39 41 58 63 65 73 74 72 73 69 62 55 53 56 55 49 43 40 39 38 39 41 40 39 37 39 42 43 43 44 45 46 46 46 45 45 44 44 43 40 37 33 29 25 23 21 20 20 19 20 21 22 23 21 20 20 23 30 39 51 66 78 87 94 98 100 98 95 91 87 83 80 78 78 77 76 77 77 77 77 76 76 75 75
Wind_Speed
15 16 16 16 16 14 14 14 12 13 13 16 19 18 17 15 17 19 16 17 19 18 19 20 21 22 22 23 23 22 22 24 21 19 21 19 21 22 23 23 22 21 19 18 17 15 14 13 13 13 14 16 17 20 19 21 25 25 22 21 19 16 14 15 17 19 18 17 17 16 17 14 9 8 11 13 15 17 18 18 19 20 20 20 20 19 19 18 18 18 18 17 17 16 16 15 14
15 16 17 16 16 12 12 13 12 14 16 19 18 16 16 16 15 14 14 15 16 19 20 21 23 23 23 23 24 25 24 24 22 21 24 23 24 25 24 24 23 22 22 21 21 19 16 14 13 13 14 16 18 19 20 24 28 25 23 21 19 16 14 15 18 20 19 17 15 13 12 10 8 8 8 11 14 16 15 16 17 18 17 17 17 17 17 17 17 17 17 17 16 16 16 15 15
16 17 18 16 15 13 13 14 14 15 17 19 17 13 14 13 12 12 15 16 17 19 20 21 22 22 22 22 21 23 23 22 21 20 23 23 24 24 22 23 23 22 22 21 20 19 17 14 12 13 14 17 19 21 22 27 29 25 23 21 20 16 15 16 16 17 19 20 18 15 13 10 8 7 8 9 12 13 13 15 16 16 16 16 15 15 16 16 16 16 16 16 16 16 15 15 14
17 17 17 16 14 13 13 14 15 16 17 18 15 13 13 11 9 13 17 16 18 19 19 19 20 20 19 20 20 21 22 21 20 20 22 22 23 24 22 22 22 22 21 20 20 19 18 16 12 12 15 17 20 22 23 28 29 26 23 21 20 18 18 16 16 15 16 18 19 18 15 14 11 8 7 8 11 13 13 13 14 15 15 15 14 15 15 15 15 15 16 16 16 15 15 15 15
16 16 16 14 13 12 13 14 15 16 17 16 14 13 12 11 11 14 17 17 17 17 17 17 17 18 17 18 18 19 20 20 20 18 21 21 21 23 22 22 21 21 20 19 19 18 18 17 14 13 15 18 21 22 24 27 28 26 24 22 20 18 18 16 17 16 15 16 17 17 16 17 16 13 11 9 10 11 13 14 14 14 14 14 14 14 15 15 15 15 16 16 16 16 16 16 16
13 13 13 11 11 12 13 15 15 16 16 14 14 13 12 12 14 16 18 19 18 15 15 16 16 17 18 18 17 17 17 18 19 18 19 19 20 21 21 21 20 19 18 18 18 17 18 17 15 14 14 18 21 23 25 27 28 27 24 23 22 19 17 17 19 19 17 16 15 15 15 15 16 18 17 13 12 13 13 14 14 13 13 13 13 14 15 15 15 16 16 16 16 16 16 16 16
10 10 10 8 10 11 13 15 15 16 14 12 12 12 12 13 16 18 18 18 18 16 15 16 17 18 18 18 16 16 16 17 19 18 19 18 18 19 19 19 19 19 17 17 17 17 18 17 16 15 15 18 21 24 26 27 28 27 24 24 22 19 18 18 19 20 21 19 16 15 14 13 14 16 16 14 13 15 16 15 14 13 13 14 13 14 15 16 16 16 16 16 16 16 16 16 17
9 8 9 8 10 11 12 15 14 14 13 11 12 13 13 15 17 18 17 17 19 19 19 18 18 19 18 18 17 17 16 16 18 18 19 19 19 19 18 18 17 19 18 17 17 17 17 17 17 17 17 19 22 24 25 26 27 26 24 24 22 20 20 19 20 21 22 21 17 16 14 12 13 14 14 12 11 13 14 14 14 13 14 15 14 14 15 16 16 16 16 16 16 16 16 16 17
10 8 8 9 10 11 14 15 14 12 11 11 12 14 16 17 17 18 18 18 19 21 22 20 19 19 20 20 19 18 15 15 17 16 17 18 18 19 19 19 19 19 19 19 18 19 18 18 18 19 20 20 22 24 23 24 27 27 24 24 24 23 21 21 21 22 24 24 21 18 16 13 13 14 13 12 11 11 12 13 13 13 14 15 14 14 15 16 16 16 17 16 16 16 16 16 17
11 9 8 10 11 12 15 14 13 11 11 12 14 17 18 19 19 19 20 20 20 22 23 22 21 21 20 20 21 19 16 16 17 16 16 16 16 17 17 18 20 20 19 19 20 20 20 20 19 21 21 21 23 24 23 25 28 27 26 27 27 25 22 21 22 24 26 27 28 25 21 18 15 15 14 14 14 15 15 16 16 16 16 15 15 14 15 16 16 16 16 16 17 16 16 17 17
10 11 10 10 11 13 15 14 14 12 12 14 15 17 18 19 20 21 21 21 21 22 24 23 22 22 21 21 22 19 16 17 18 17 17 17 17 16 16 16 17 19 19 21 21 22 22 20 21 21 22 24 24 24 25 26 28 28 28 29 27 26 23 22 23 23 24 25 29 29 27 25 22 20 19 19 20 22 23 22 20 18 18 17 17 15 15 15 15 16 16 17 17 17 17 17 17
9 11 11 10 12 14 15 15 16 15 17 16 13 16 19 19 19 20 20 20 22 23 24 23 23 23 24 22 21 20 18 20 20 18 18 18 17 17 16 16 16 17 17 19 20 23 23 21 21 21 23 25 25 27 29 26 27 29 29 29 28 27 24 22 22 22 21 21 23 26 27 27 27 26 24 24 24 25 26 26 24 20 19 18 17 17 16 16 16 16 16 16 16 17 17 17 17
9 10 11 12 13 14 14 15 17 17 17 13 13 20 20 19 18 19 18 19 19 19 21 23 23 23 25 23 21 23 21 20 20 19 19 19 18 17 17 18 17 18 17 17 17 19 22 22 20 20 23 27 27 28 30 26 28 31 30 30 30 27 22 21 21 19 19 18 19 20 22 23 24 24 23 24 24 24 23 24 24 22 21 20 18 17 17 17 18 18 19 18 17 18 18 18 18
9 11 12 13 13 14 16 17 16 15 14 12 18 23 21 19 18 18 19 19 16 16 19 21 22 21 22 19 15 19 19 18 20 21 21 21 21 20 20 20 20 20 19 18 17 16 18 20 20 20 21 28 31 29 30 31 31 32 32 32 30 25 20 21 20 19 19 19 20 19 20 21 21 21 21 23 24 24 23 23 23 22 22 22 21 19 19 18 19 20 21 21 20 21 20 20 20
11 13 13 13 15 15 15 15 13 14 14 11 18 22 20 21 20 19 19 19 17 18 20 20 20 19 17 16 14 19 23 22 23 23 24 24 24 24 24 24 23 22 21 20 19 17 16 18 18 20 20 26 32 31 32 35 33 30 30 30 26 22 20 22 20 19 21 21 21 21 21 22 22 22 22 23 24 24 24 24 24 23 22 22 22 21 20 20 20 20 20 20 21 22 23 23 24
11 12 12 12 15 14 13 12 11 12 11 9 18 23 20 20 22 21 20 20 20 21 21 20 21 20 19 20 22 25 26 26 27 26 26 27 27 27 27 27 26 24 23 21 20 19 17 17 16 18 21 23 28 30 31 34 33 27 25 25 23 21 21 21 20 20 21 21 22 23 23 23 23 23 23 23 23 23 23 24 24 24 23 22 22 21 21 21 21 21 21 21 20 21 22 23 24
12 12 11 13 14 14 12 10 10 12 12 14 19 23 22 19 21 24 22 21 22 22 22 22 23 23 21 23 26 26 26 28 28 28 28 29 29 29 28 28 28 27 25 23 22 21 19 18 17 18 21 25 26 27 29 32 33 31 29 27 24 22 22 21 20 20 21 22 23 24 24 24 24 23 24 24 23 23 23 24 24 24 24 23 23 23 23 23 22 22 22 22 21 21 22 23 23
13 12 10 14 13 13 13 11 14 16 17 18 17 21 25 22 20 25 25 22 23 24 24 23 25 25 22 23 27 26 26 29 27 27 28 28 29 29 28 27 26 26 25 25 23 22 21 20 19 18 20 25 28 28 30 31 33 33 32 29 25 23 23 22 20 20 22 23 24 25 25 25 25 24 24 23 23 23 23 24 25 25 25 24 24 25 25 25 24 23 23 23 22 22 22 23 23
13 11 11 15 13 13 17 18 21 20 20 21 21 22 24 24 22 25 27 25 24 25 26 25 25 26 25 23 26 27 25 27 28 27 28 28 28 28 28 26 25 24 24 24 24 23 23 22 21 20 19 22 26 29 32 33 32 31 31 28 25 24 23 21 21 22 24 24 26 27 26 25 25 25 24 23 24 23 23 23 25 25 26 25 26 27 26 26 25 24 24 24 24 23 23 23 23
14 14 14 15 14 17 19 21 22 21 22 23 23 22 23 25 24 24 27 27 27 27 25 22 20 21 22 19 23 31 29 26 29 28 28 29 28 28 27 27 25 24 23 23 23 24 24 24 23 22 21 21 23 26 31 32 29 28 29 27 24 24 23 22 22 24 26 27 28 28 26 25 26 25 23 23 24 24 24 25 26 27 28 27 28 28 28 27 27 26 25 25 25 25 25 25 25
15 19 17 15 16 21 20 20 24 22 23 24 23 23 24 25 25 25 26 29 28 25 22 19 20 20 23 23 24 33 33 28 29 29 28 28 27 27 27 27 26 25 25 24 23 22 24 25 25 25 25 24 23 25 31 32 28 27 28 26 26 28 26 25 25 26 28 29 30 29 27 26 27 25 24 24 24 24 25 26 28 28 29 29 30 30 30 29 29 28 27 27 26 26 26 26 26
18 22 19 18 19 23 21 22 26 22 23 24 23 24 25 26 26 25 27 29 24 19 19 19 22 22 24 26 25 29 29 26 27 26 25 25 26 26 26 26 25 25 25 25 23 22 23 25 26 26 26 26 25 25 29 31 29 30 29 28 29 30 29 29 29 29 30 32 32 30 28 27 27 26 25 25 26 26 26 27 27 28 28 29 30 31 31 31 30 30 29 29 28 28 27 27 28
20 21 17 20 22 22 22 24 25 23 24 24 23 25 26 26 25 25 25 24 18 13 15 18 19 20 22 22 21 23 23 22 23 23 23 23 24 25 25 26 25 25 25 25 24 23 24 24 25 27 28 28 27 26 28 29 29 31 31 30 31 31 31 32 32 32 32 33 33 32 30 29 28 27 26 26 26 26 26 27 27 28 28 29 30 31 31 32 32 31 31 30 30 29 29 29 29
21 21 18 21 24 23 22 24 24 23 23 23 23 25 25 25 24 23 19 14 13 13 13 14 15 16 18 18 19 21 21 22 22 22 23 23 23 23 24 25 25 25 25 24 23 24 24 23 25 27 29 29 28 29 31 31 31 32 32 31 31 33 34 34 35 34 32 33 35 34 33 31 29 28 28 28 27 27 27 27 28 28 28 29 30 31 32 33 33 33 32 32 31 30 30 30 30
21 20 18 21 22 22 22 22 23 22 22 22 24 24 22 23 21 17 12 8 10 12 11 13 14 15 17 18 19 20 21 22 22 23 24 24 24 23 23 23 24 24 24 23 23 23 22 23 25 27 28 28 28 31 33 33 33 34 33 32 33 35 35 36 36 34 31 33 35 34 33 31 30 29 28 29 29 29 29 29 29 30 29 30 30 31 32 33 34 34 34 33 32 32 31 31 31
20 20 20 22 22 21 22 21 21 21 20 21 22 20 18 18 14 11 10 10 9 10 14 16 17 18 19 20 20 21 21 22 22 22 22 22 23 23 24 24 25 25 25 25 25 24 23 24 25 25 26 28 29 31 33 34 35 35 35 35 36 37 38 38 36 34 31 33 36 34 32 31 30 29 29 29 29 30 29 29 30 30 30 30 31 32 33 34 35 35 35 35 34 33 32 32 32
19 22 22 21 21 20 20 20 18 18 18 18 19 17 14 12 8 7 7 10 11 15 18 18 19 19 20 21 22 23 23 23 23 22 22 22 22 22 22 24 25 25 26 26 26 26 25 25 26 25 25 27 29 31 33 35 37 37 37 38 39 38 38 38 35 33 32 33 36 34 31 31 30 30 30 30 30 30 30 30 30 30 30 30 31 32 33 35 36 36 36 36 35 34 33 33 33
19 20 22 20 19 19 17 16 14 15 15 15 16 13 5 4 5 4 8 13 18 21 22 20 20 21 21 23 23 24 23 23 23 22 22 22 21 21 21 23 24 25 26 26 26 27 27 27 27 26 26 27 29 31 32 34 37 39 38 38 39 38 38 38 35 32 32 35 36 34 32 32 32 33 31 31 32 32 31 32 32 31 31 32 32 33 34 35 36 36 37 36 36 35 35 34 34
18 19 21 19 17 16 13 11 11 13 14 13 14 9 4 3 4 9 13 18 23 24 22 21 19 19 19 20 21 22 21 21 21 20 20 20 20 20 21 22 24 25 26 26 27 28 29 29 28 28 28 28 28 30 32 33 36 38 37 36 38 38 40 41 36 32 32 34 36 35 33 33 35 36 33 32 33 34 33 34 33 33 33 33 34 34 35 36 37 37 37 37 37 36 36 36 35
18 19 20 17 14 13 11 11 13 14 12 11 12 7 5 3 9 14 17 20 23 23 21 19 16 15 16 17 18 19 19 18 17 17 17 17 18 18 19 20 22 24 26 27 28 29 30 30 30 30 31 30 29 29 31 32 34 35 35 35 37 39 41 42 38 35 34 33 34 35 34 34 37 39 37 34 34 35 34 34 34 34 34 34 34 34 35 36 37 37 38 38 38 37 37 36 36
17 17 16 15 11 10 14 13 12 13 12 10 11 6 4 9 15 15 18 21 23 22 19 15 13 13 15 16 17 17 17 16 16 16 16 16 17 17 18 20 21 23 25 28 29 30 31 31 31 30 31 30 30 31 31 31 32 34 35 36 39 42 40 37 34 36 39 36 32 33 35 37 38 39 38 37 36 36 35 34 34 34 35 35 35 35 35 36 37 38 38 39 39 38 38 37 36
16 13 9 9 9 10 16 14 10 13 14 12 11 7 4 12 19 18 19 23 24 22 17 13 13 14 15 15 16 16 16 16 17 18 18 18 19 19 19 20 21 22 23 26 29 31 32 33 33 31 30 30 30 31 32 32 31 33 35 35 37 39 36 35 34 37 42 40 34 31 35 39 39 37 37 38 38 38 36 35 34 35 35 35 35 35 35 36 37 38 38 38 38 38 38 37 37
13 12 8 9 11 11 14 15 13 13 16 15 12 12 9 12 21 21 21 24 24 22 17 14 15 16 16 17 17 18 17 17 18 19 20 20 20 21 20 20 21 21 22 24 26 30 32 33 34 34 33 31 30 31 32 32 32 33 34 35 36 37 41 46 43 40 41 39 36 34 35 38 39 38 37 38 40 39 37 35 35 36 36 36 36 36 36 36 36 38 38 38 38 38 38 37 37
8 11 11 12 13 14 14 16 18 14 16 17 15 19 16 13 22 24 23 25 24 22 18 17 17 18 19 19 19 20 20 19 18 18 19 20 21 22 22 21 21 21 21 22 23 26 30 33 34 35 36 34 33 32 32 33 33 34 34 34 35 37 44 49 47 44 43 40 39 38 37 39 40 40 39 38 41 40 38 37 37 37 37 37 38 38 38 38 36 36 37 38 38 38 38 38 38
11 13 15 15 16 18 16 16 19 17 18 19 19 22 15 10 23 27 24 26 26 22 20 19 20 20 21 21 20 21 21 21 19 19 18 19 19 21 22 21 21 20 20 21 21 22 26 31 33 35 37 34 32 30 32 34 33 34 36 35 36 37 40 43 43 44 44 43 42 41 42 43 41 42 41 40 42 41 39 38 37 37 37 38 39 38 38 38 37 36 35 36 36 38 39 39 39
18 19 20 21 21 23 18 17 20 19 20 22 20 18 11 16 28 28 26 27 26 24 21 21 21 22 22 21 20 20 20 20 19 18 18 19 18 19 20 20 21 20 20 20 20 20 23 27 30 34 35 33 32 31 32 34 33 35 36 36 38 38 39 41 42 43 43 43 44 43 43 42 42 44 42 40 42 42 41 41 39 36 37 38 39 39 37 36 37 36 36 36 36 37 39 40 40
20 20 22 23 24 25 19 18 23 22 19 19 19 15 14 24 30 30 30 28 25 24 22 22 21 22 23 21 20 19 18 18 17 17 17 18 19 19 20 20 21 21 20 20 19 20 21 24 27 31 33 33 34 34 32 32 33 36 37 37 37 37 38 40 42 44 43 44 45 45 42 42 43 44 42 41 42 42 42 42 39 36 38 40 40 40 38 37 38 38 37 37 37 38 39 41 42
22 22 24 24 23 24 21 21 25 24 18 14 16 16 17 27 31 31 33 26 23 22 21 22 21 22 22 20 19 17 15 14 14 15 15 16 17 18 20 20 21 21 21 21 20 20 21 22 25 28 31 33 34 35 34 33 33 35 37 36 35 36 37 40 43 43 43 44 45 45 43 43 44 43 43 45 44 43 44 43 41 40 42 44 42 40 40 39 39 39 38 39 39 39 41 43 44
22 23 23 22 21 20 20 22 23 24 21 16 18 18 19 29 32 30 32 27 23 20 19 20 21 22 20 18 17 15 13 12 12 13 14 15 15 16 17 18 19 20 21 21 21 22 22 22 23 25 29 32 33 36 37 36 33 34 37 36 35 37 37 37 39 40 42 43 42 43 44 44 45 43 43 45 44 43 44 44 44 44 45 46 43 41 42 42 40 40 41 42 42 42 43 44 42
21 22 21 20 18 16 16 19 24 27 26 23 22 20 21 30 32 28 28 26 23 19 17 18 18 19 18 17 16 15 15 14 14 15 16 15 15 15 15 16 16 17 19 20 21 22 23 24 24 25 27 29 32 34 38 39 36 34 36 37 37 39 38 36 36 37 39 39 39 41 42 42 45 46 45 45 44 44 45 45 45 46 46 46 44 43 44 45 43 43 44 44 44 45 44 42 40
20 20 22 21 19 19 18 21 27 28 27 25 20 16 18 25 26 24 23 21 19 17 17 17 17 16 14 14 14 15 16 17 18 19 20 19 18 17 17 16 15 16 17 18 19 20 22 24 25 26 27 28 29 32 35 38 40 37 35 37 39 39 39 38 39 39 38 38 39 41 42 43 44 45 46 46 46 46 47 47 48 50 50 49 46 44 45 47 46 46 47 45 45 46 44 41 41
18 17 21 22 22 23 22 24 26 23 19 13 5 5 10 17 19 20 20 19 16 15 17 18 18 15 13 13 14 16 17 19 21 21 22 22 22 21 20 19 19 19 20 20 21 22 22 23 24 26 28 29 29 30 32 35 38 40 38 38 40 40 41 41 41 40 39 41 41 41 44 46 46 46 47 47 46 47 47 46 47 49 50 49 48 46 45 47 48 48 46 46 46 45 43 43 45
16 17 21 22 24 25 25 24 21 15 13 10 7 7 9 11 14 19 20 18 15 16 19 19 18 16 15 15 16 17 18 18 19 20 20 20 22 23 24 24 26 26 27 28 28 28 27 26 25 25 26 28 30 30 31 32 35 38 39 40 41 42 43 44 43 43 43 44 44 43 44 47 49 49 50 49 48 48 48 49 48 48 48 47 47 49 47 46 46 45 44 44 45 44 42 44 47
17 20 22 22 24 23 23 23 19 17 18 20 19 16 14 13 15 20 18 14 15 19 21 19 16 16 17 18 19 19 19 20 20 22 23 24 26 27 29 30 32 33 32 32 32 31 30 29 27 27 27 27 28 29 31 32 33 35 37 39 41 43 45 45 46 47 47 47 46 46 46 46 48 49 50 51 51 51 52 53 53 52 51 49 49 51 50 45 42 42 45 46 46 46 44 44 45
18 19 19 19 19 19 20 22 21 18 16 19 16 11 11 11 14 17 14 14 18 21 20 17 16 18 19 19 21 21 23 26 28 30 32 33 33 33 34 33 33 35 35 36 35 34 32 30 28 27 27 27 27 27 28 30 32 34 35 37 39 42 44 45 47 48 49 49 49 50 50 50 51 51 51 52 52 53 53 54 55 56 56 55 54 55 54 50 44 42 44 48 50 52 51 50 49
16 17 17 17 19 20 21 20 17 13 12 16 13 13 10 5 10 12 10 14 17 16 16 18 20 23 24 23 23 23 25 29 31 34 35 36 37 38 38 37 36 35 35 36 35 35 34 32 31 30 29 28 27 27 27 28 29 31 33 35 37 39 41 43 45 47 48 50 51 53 53 53 53 54 54 55 55 55 55 55 56 57 58 58 59 59 59 57 53 48 46 47 50 53 56 57 58
16 17 18 20 22 20 18 15 10 8 8 8 6 11 9 5 8 11 10 11 12 13 17 22 23 24 23 22 23 23 27 30 32 34 35 36 37 37 37 37 37 36 35 34 33 33 33 33 32 32 31 31 30 30 30 29 28 29 30 32 34 36 37 39 41 43 45 47 49 51 53 53 54 55 56 57 58 58 58 58 58 59 59 59 60 61 61 61 60 58 55 53 53 55 56 58 61
15 16 17 16 16 12 11 8 5 6 4 3 3 3 5 6 6 10 12 13 15 19 22 23 22 21 20 19 21 25 29 32 35 37 39 40 40 40 39 39 38 36 35 35 34 33 33 31 30 30 31 31 32 33 33 32 31 30 30 30 31 33 34 36 37 39 40 41 43 45 47 49 50 51 53 55 56 57 58 59 59 60 60 60 61 61 61 62 62 63 63 64 63 63 63 63 64
15 15 13 10 9 7 7 5 5 7 4 3 1 3 4 10 12 15 17 18 19 21 21 20 19 18 18 19 23 28 32 34 36 38 40 42 44 45 45 45 45 43 42 40 38 37 36 34 32 31 30 30 31 33 34 34 34 33 32 31 31 32 32 33 34 35 36 37 39 40 41 42 43 45 47 49 50 51 54 56 56 57 58 60 61 61 62 62 63 63 65 66 68 68 69 69 68
14 9 6 6 6 6 6 6 7 9 5 3 7 7 8 13 13 15 17 17 18 19 19 19 17 16 19 24 28 31 33 34 35 36 37 38 39 40 41 42 44 44 45 45 44 42 41 40 39 37 36 33 32 31 32 34 35 34 34 33 33 33 33 34 34 34 35 35 35 36 37 38 39 40 42 43 44 45 47 49 50 52 53 55 57 58 59 60 60 61 62 62 64 64 65 65 64
11 5 7 9 6 5 6 6 8 9 11 15 13 7 6 7 9 14 18 18 18 18 18 17 16 19 24 28 30 31 32 33 34 34 34 34 34 35 36 37 38 38 40 41 42 43 42 42 42 42 41 40 38 35 33 33 34 34 35 35 35 35 35 36 36 36 36 35 35 35 36 36 37 38 39 40 41 41 42 43 45 46 47 49 50 51 52 53 54 54 54 55 55 56 56 56 56
7 8 12 8 7 6 8 12 14 13 14 16 13 9 8 10 15 20 19 17 18 17 17 18 20 25 27 28 30 32 35 36 37 37 37 36 36 36 36 36 36 36 36 36 38 39 40 40 41 41 42 42 42 41 39 37 36 35 36 36 37 37 37 38 38 38 38 38 38 37 37 37 37 38 38 39 39 40 41 41 42 43 43 44 45 46 47 47 48 48 49 49 49 50 50 50 49
8 12 10 7 10 11 12 14 14 11 9 11 14 13 10 9 13 15 12 12 15 15 17 21 25 28 29 31 34 37 38 39 40 41 42 42 42 42 41 40 38 36 35 35 36 38 39 40 40 41 42 42 43 43 43 42 40 38 37 37 37 38 38 39 39 40 41 41 41 41 40 40 39 39 39 39 39 39 40 40 41 42 42 43 43 44 45 45 46 46 47 47 47 47 48 47 47
10 12 10 12 13 10 9 8 7 7 8 9 14 17 17 14 11 10 9 8 11 16 20 22 25 28 32 36 39 39 39 39 40 42 45 47 48 47 45 42 40 38 38 39 40 40 40 41 41 41 42 43 43 44 44 43 43 42 39 38 38 39 39 40 41 41 42 43 43 43 43 42 42 41 41 40 40 40 39 40 40 41 41 42 42 43 43 44 44 45 45 46 46 46 46 46 46
13 13 12 10 7 5 6 6 7 9 8 8 14 19 19 14 6 4 6 7 11 16 19 22 27 32 36 39 41 42 41 40 41 43 47 49 48 47 46 44 44 44 45 45 45 43 42 42 42 43 42 42 43 44 44 44 44 44 43 42 40 40 40 41 42 43 43 44 44 45 45 44 44 44 43 43 42 42 41 40 40 40 40 41 41 41 42 43 43 43 44 44 44 44 45 45 44
13 10 6 3 3 6 9 11 11 11 9 9 12 13 10 5 5 3 7 10 14 17 19 25 31 37 41 42 43 44 44 45 47 49 50 49 46 47 47 48 50 51 52 52 50 48 44 42 42 43 43 44 43 43 44 45 45 45 46 45 43 42 41 41 42 44 45 45 46 46 46 47 46 46 46 45 45 44 44 43 43 42 41 41 41 41 41 42 42 43 43 43 43 43 44 44 43
8 4 2 3 7 9 11 14 14 11 9 8 8 10 8 4 4 12 14 14 16 18 22 29 34 38 42 43 44 46 48 50 51 50 51 50 49 49 50 52 54 54 54 54 53 52 49 46 45 44 44 45 44 44 44 45 45 45 47 47 46 45 44 43 43 43 45 46 47 47 47 48 48 49 49 48 47 47 46 45 45 45 45 44 44 43 43 43 43 43 44 44 44 44 44 45 45
5 3 3 6 11 12 11 11 9 8 9 9 9 12 12 13 18 18 15 16 19 23 28 32 36 39 41 43 47 50 52 52 51 50 50 53 54 55 55 56 57 57 56 55 54 54 53 51 49 47 46 46 46 45 44 45 45 46 47 48 48 47 46 46 45 44 44 45 47 47 48 47 48 49 50 50 50 50 49 48 48 47 47 47 47 46 46 46 46 46 46 46 46 46 46 47 47
Wind_Direction
288 288 289 289 289 295 296 294 287 277 269 262 267 272 276 274 277 290 294 292 290 284 281 281 279 278 278 278 277 276 275 276 275 272 271 275 280 279 280 283 284 281 276 276 280 284 281 276 269 255 240 235 239 240 243 238 227 226 237 245 239 240 255 263 261 257 256 253 257 252 251 260 254 244 237 227 222 222 222 224 226 225 224 224 226 229 231 231 233 234 234 233 232 231 231 228 227
291 290 290 290 291 293 288 289 279 268 267 267 271 272 277 283 291 302 294 281 278 278 284 286 285 286 284 280 279 279 278 278 274 268 269 273 274 274 277 279 279 277 273 271 272 275 274 271 267 257 237 229 238 238 241 233 221 226 240 245 236 242 261 263 263 261 255 249 253 251 250 257 238 231 228 217 216 218 218 221 224 223 222 223 227 229 230 231 231 232 231 230 229 228 229 229 227
292 291 290 291 293 289 284 280 270 270 271 271 276 280 286 295 303 298 281 280 286 290 293 292 292 291 289 286 284 282 281 282 279 275 273 271 271 272 274 275 274 273 270 268 267 268 266 263 259 253 235 226 235 234 233 225 219 230 246 246 238 253 262 254 259 260 259 253 250 248 250 254 244 244 223 212 218 220 222 223 224 224 221 220 224 228 230 231 231 231 231 230 229 228 229 231 231
292 290 288 290 292 288 282 268 260 269 272 275 285 293 301 308 303 284 280 290 295 298 298 298 298 294 292 289 286 283 284 284 282 281 277 273 272 273 272 272 271 270 267 264 262 261 258 257 252 246 234 226 233 235 233 225 224 239 252 251 246 259 261 250 253 255 261 257 253 251 249 247 243 254 239 222 225 224 226 228 226 224 222 220 220 224 228 230 232 232 232 232 231 231 233 235 237
295 292 289 287 283 277 271 264 262 265 268 280 291 294 302 308 299 286 293 301 298 299 299 302 303 300 297 290 288 286 286 288 286 283 279 277 275 273 273 272 271 269 265 260 258 256 253 250 246 243 233 228 233 235 236 231 231 245 253 252 247 255 259 254 253 251 260 261 260 256 249 244 239 242 244 236 233 229 228 232 231 227 225 224 224 225 228 230 231 234 234 235 235 235 236 238 240
305 304 299 291 277 268 264 264 264 265 271 284 289 293 300 299 292 293 303 305 300 297 297 304 306 304 302 298 299 292 289 289 287 286 282 281 279 277 276 274 272 268 262 257 254 253 250 247 242 243 235 229 232 234 235 236 238 247 252 251 246 250 256 256 256 254 261 264 263 260 250 244 237 233 235 236 239 240 238 240 239 236 234 233 232 231 233 234 233 235 236 237 238 239 240 242 243
318 314 309 301 283 274 263 261 265 271 279 283 285 292 295 290 290 296 303 304 302 297 296 302 304 305 304 305 309 302 299 291 285 287 284 282 281 282 281 278 273 266 260 256 253 251 248 246 241 241 240 231 231 232 235 240 243 246 251 252 247 248 254 254 256 255 257 259 259 256 250 248 243 231 225 224 228 237 241 241 242 243 242 242 240 239 241 241 240 239 239 240 241 243 243 245 245
322 311 301 293 279 275 266 264 270 276 281 287 291 291 290 290 292 294 296 298 300 298 296 299 302 304 302 304 307 305 308 297 289 289 285 284 282 283 284 284 277 267 261 258 255 253 251 249 244 240 241 235 232 232 234 240 243 248 253 253 247 247 254 253 254 254 252 252 254 251 245 248 250 238 227 220 218 230 241 243 243 245 245 245 245 245 246 247 248 246 245 243 241 242 243 244 245
321 312 299 289 279 272 267 272 277 279 284 293 297 296 296 293 290 291 291 292 293 295 295 296 298 298 298 301 302 304 308 301 295 294 291 291 288 285 282 281 278 271 264 261 259 258 256 252 249 242 238 234 230 231 236 239 243 250 252 249 246 247 253 255 254 252 248 243 243 242 238 243 251 242 236 237 235 239 251 256 253 250 250 250 249 249 249 249 251 251 250 248 245 242 242 243 243
317 310 300 291 286 275 270 277 281 287 292 297 303 299 297 293 291 290 290 289 289 291 291 292 293 293 293 295 297 301 303 298 296 297 296 296 295 292 285 279 276 274 270 266 263 260 257 253 252 244 237 234 230 232 235 237 242 248 248 247 247 249 254 257 257 255 252 246 241 240 234 236 246 243 245 254 253 253 260 267 268 263 258 257 256 252 250 251 251 252 252 252 250 246 244 243 242
305 299 299 288 282 276 278 285 285 293 295 301 305 293 291 292 291 291 291 290 288 287 288 290 290 292 292 293 294 294 296 295 294 294 293 294 295 294 292 288 281 279 275 271 266 261 257 255 255 246 236 234 233 234 232 232 238 242 244 248 250 253 257 259 259 259 260 256 251 250 242 235 237 240 248 257 256 259 264 267 269 270 265 260 258 254 251 252 253 252 252 252 252 251 248 246 244
288 287 292 282 278 279 286 291 288 296 300 306 292 276 292 298 293 292 291 288 288 289 287 288 288 290 291 293 293 288 289 288 289 290 288 288 288 289 292 293 292 288 284 281 275 267 260 257 259 252 238 234 234 235 236 234 236 238 242 249 254 255 257 258 258 260 262 259 256 256 253 247 246 245 249 256 257 261 267 267 264 266 269 265 259 255 252 251 253 253 252 251 251 252 251 249 248
284 280 282 276 277 281 286 288 291 298 304 310 281 275 296 302 296 294 290 289 292 291 288 290 290 289 290 291 290 286 286 282 282 282 280 281 280 284 288 291 293 293 293 294 289 278 266 258 260 255 239 236 238 240 242 239 238 241 245 248 250 253 255 255 256 258 257 254 251 252 255 256 257 255 255 258 259 262 266 267 263 261 265 267 264 259 255 253 253 253 253 252 250 252 253 252 250
285 277 276 274 278 282 283 284 290 296 299 302 284 286 299 300 298 296 294 295 293 288 289 294 294 293 294 296 293 285 285 281 278 275 274 276 280 285 289 291 292 293 294 295 295 289 277 266 261 254 238 233 237 244 243 238 239 242 243 242 244 251 252 250 253 254 250 249 250 251 254 256 260 262 261 259 259 259 259 258 258 257 258 262 264 263 261 257 253 251 251 251 250 251 255 258 257
284 279 278 275 278 282 283 282 287 294 297 291 278 287 302 302 300 298 296 295 291 291 295 297 295 292 289 289 283 279 284 285 279 276 276 277 280 284 286 289 290 291 291 291 291 289 286 279 267 257 246 232 232 241 243 237 234 232 234 237 244 252 248 245 250 250 248 248 252 255 257 260 263 266 265 261 258 256 253 252 253 255 256 257 261 263 263 261 258 254 252 251 250 251 252 255 256
286 284 281 274 276 280 281 280 286 294 294 289 284 290 302 303 300 297 295 296 295 298 299 296 293 290 287 286 282 283 285 283 282 281 280 280 280 281 283 285 287 287 287 288 288 286 285 282 273 262 254 240 235 241 246 245 239 232 235 243 254 259 249 247 250 248 247 249 253 259 262 266 269 270 267 263 261 258 255 252 251 253 255 257 260 262 262 262 261 260 258 255 253 251 249 248 248
292 288 279 267 272 279 280 283 290 288 280 288 299 298 300 301 300 297 297 298 298 299 296 294 294 294 297 294 289 290 286 281 282 283 283 283 283 282 283 283 284 284 284 284 284 283 282 280 276 269 256 243 241 244 246 250 250 251 255 257 262 262 254 252 251 251 253 254 259 264 268 272 271 270 267 265 262 260 258 255 253 253 255 257 259 261 262 263 262 261 261 259 257 254 251 249 248
293 289 275 265 272 280 275 275 284 286 283 286 293 296 298 300 298 297 300 301 301 300 296 298 301 300 302 297 288 286 282 281 282 282 283 284 285 287 286 285 284 283 281 280 279 278 277 276 274 271 261 247 246 247 245 249 254 259 264 264 265 264 258 255 252 255 260 262 266 269 271 273 271 269 268 267 264 261 259 257 256 256 257 257 258 259 261 263 263 262 263 262 261 258 256 253 252
291 279 262 266 276 277 273 279 283 286 286 286 288 292 296 299 299 297 300 302 301 299 298 303 305 303 306 306 297 286 276 280 282 281 283 284 286 287 287 286 285 283 281 278 275 272 270 269 268 266 263 255 252 249 246 248 253 259 262 261 263 263 260 257 255 260 265 267 268 269 269 268 267 266 267 267 265 264 261 260 261 260 261 261 260 261 261 262 262 262 263 262 263 262 260 257 255
290 272 263 271 278 274 279 288 288 287 287 289 293 294 296 298 299 298 300 301 299 300 303 307 304 301 301 301 298 288 279 280 281 280 282 283 284 284 285 285 283 282 281 278 273 270 269 266 265 263 259 258 255 252 251 251 254 258 257 257 259 260 260 258 259 263 267 268 267 266 264 263 262 263 265 265 265 264 263 263 263 264 265 265 264 264 263 262 262 262 262 262 262 262 261 259 257
282 277 278 276 275 278 287 289 287 291 291 293 297 298 297 297 298 301 302 298 301 309 310 302 295 293 286 279 278 281 284 286 283 281 281 280 281 281 282 282 281 281 279 277 274 270 268 266 265 263 260 259 254 250 251 253 255 256 254 256 257 256 255 255 257 260 263 266 266 264 261 259 259 260 261 263 265 265 263 262 262 263 265 265 265 265 264 263 262 262 262 263 262 261 260 259 257
281 284 288 281 278 283 289 287 289 295 293 295 300 298 296 296 300 303 301 301 310 320 311 296 287 285 283 282 280 281 286 287 283 282 280 278 277 278 279 281 281 280 278 276 275 270 265 263 263 262 262 260 256 250 250 251 252 254 255 255 255 256 257 258 257 257 259 261 263 263 261 259 258 258 257 258 262 263 262 262 262 264 264 265 265 265 264 263 261 261 261 261 262 261 260 258 256
286 286 287 283 284 287 288 288 292 296 294 297 299 296 296 299 302 301 303 313 324 314 301 296 289 287 286 287 283 280 282 281 279 280 278 276 275 276 277 278 279 278 279 279 278 273 266 262 261 262 262 261 260 256 251 248 247 249 251 251 253 255 257 258 257 257 258 259 259 260 260 258 257 257 256 256 258 259 260 262 263 265 265 265 266 266 265 263 262 261 261 260 260 260 259 258 256
285 285 283 281 286 289 289 289 293 296 296 297 296 294 297 300 302 306 314 331 331 307 301 301 294 293 289 287 282 277 276 275 275 275 275 274 273 273 274 276 278 278 279 281 280 276 272 267 261 260 260 261 262 258 253 250 248 248 247 248 251 252 254 255 255 256 256 257 258 258 257 256 255 255 255 255 256 258 260 262 264 265 265 265 265 266 265 263 262 261 260 260 259 258 258 257 256
287 289 285 284 289 292 292 292 295 298 297 297 294 294 299 302 307 322 330 333 330 317 311 304 294 292 290 288 285 281 279 278 276 275 275 275 274 274 274 275 276 276 277 277 276 275 275 270 262 258 259 261 263 258 254 252 251 251 250 250 251 252 253 255 256 257 256 257 258 257 257 256 254 252 252 253 254 255 257 259 261 262 263 263 264 263 263 262 261 260 260 259 259 258 257 257 256
288 291 288 289 293 296 296 297 299 299 298 295 293 298 306 309 325 359 352 326 325 320 312 305 297 294 292 289 287 286 285 283 283 283 282 280 279 278 276 276 276 275 276 275 274 273 272 269 264 260 258 259 259 255 253 254 253 252 251 250 250 250 252 254 257 259 259 260 262 261 259 258 256 254 253 253 254 255 255 257 258 259 261 261 262 261 261 260 260 259 259 258 258 258 258 257 256
286 290 291 293 297 298 297 300 302 298 296 295 299 315 321 317 346 17 344 321 319 318 313 306 297 292 288 286 286 286 285 285 287 287 287 284 281 279 276 275 274 274 274 274 274 273 271 269 268 264 260 257 255 253 252 253 253 254 253 251 249 249 251 254 254 254 254 257 262 263 262 260 258 256 256 255 256 257 257 258 259 260 261 261 261 261 260 259 259 258 257 257 257 256 256 256 255
290 292 294 298 302 302 300 303 303 298 299 301 312 331 345 335 350 328 314 323 323 321 314 304 296 291 288 287 286 287 287 288 289 288 287 285 283 280 277 274 272 271 269 268 269 269 269 268 268 267 264 261 258 256 254 252 252 255 257 258 258 259 260 261 260 255 253 254 257 262 264 264 263 259 256 256 257 258 259 259 260 261 262 262 262 261 260 260 259 258 257 256 255 255 254 253 253
295 297 300 304 307 304 304 309 306 301 303 309 321 342 72 78 330 308 318 327 324 322 314 305 300 296 294 293 291 291 292 293 294 292 290 289 288 286 283 280 277 275 272 269 267 266 267 265 265 265 264 263 262 261 259 255 253 255 258 258 262 266 267 269 269 264 259 256 257 260 263 265 266 264 259 257 258 259 260 261 262 263 263 262 262 262 261 261 260 259 258 256 255 254 253 252 251
299 302 303 306 312 302 300 312 310 303 303 313 324 346 53 4 307 309 318 323 323 322 316 309 307 306 304 302 298 296 297 297 295 293 292 291 289 288 287 286 284 282 277 273 269 266 267 266 265 264 263 262 260 260 260 260 258 258 258 254 257 261 263 265 264 263 261 260 261 260 260 260 263 267 265 262 262 262 262 264 264 265 264 264 264 263 262 261 260 258 257 256 254 254 253 253 252
302 304 305 309 313 294 296 309 307 301 303 312 314 319 347 305 296 304 311 317 324 323 318 311 308 307 304 302 299 298 298 297 294 292 291 290 288 287 287 286 284 283 280 275 269 265 264 266 266 264 263 261 259 257 257 259 259 258 256 251 251 253 255 258 258 259 257 256 262 262 258 259 262 268 271 270 268 267 266 266 268 269 269 268 267 266 264 262 260 257 256 255 254 253 253 253 253
304 303 303 306 302 290 299 307 305 302 301 304 304 302 320 305 298 301 307 314 322 321 315 306 304 303 300 297 293 293 293 292 292 291 290 289 289 288 287 286 284 282 281 277 270 264 260 262 265 264 263 261 259 258 257 257 256 256 256 253 252 252 254 256 256 258 257 255 260 259 255 259 263 267 272 273 271 270 270 270 272 273 274 273 272 271 268 266 262 258 256 255 254 254 254 254 254
287 294 289 286 289 287 295 300 302 303 299 300 300 292 302 308 296 296 304 311 317 318 309 297 300 303 301 296 289 287 287 287 286 286 287 288 289 289 288 287 286 285 284 280 273 265 259 258 261 264 264 262 259 257 257 256 255 254 255 256 255 257 262 261 256 258 262 261 262 261 259 261 262 264 269 271 270 270 270 272 274 276 276 276 278 276 273 271 266 260 256 255 255 256 256 256 256
268 290 295 289 289 287 291 296 299 302 298 299 299 296 305 305 290 294 306 309 312 313 303 290 293 302 304 298 290 287 285 283 282 280 280 280 284 288 289 289 288 286 284 282 278 269 262 259 259 262 266 265 262 259 257 256 254 253 252 251 251 251 257 260 257 257 261 261 262 262 261 260 259 261 263 267 269 268 267 268 271 273 273 276 281 281 278 277 273 265 260 258 256 256 256 257 257
277 283 291 289 287 287 291 293 296 304 301 298 299 300 306 288 284 295 304 305 308 309 298 287 288 299 303 296 287 285 284 283 281 279 276 274 276 280 285 288 288 288 285 282 280 274 266 261 260 261 265 267 265 261 257 255 252 251 250 248 247 243 244 250 253 254 256 257 259 260 261 261 260 259 262 265 267 267 267 266 266 266 267 271 276 278 278 278 279 275 269 266 263 260 258 256 257
281 284 286 287 288 288 292 288 290 301 300 299 299 297 291 278 287 296 300 301 303 303 295 285 286 295 298 292 283 281 282 282 281 281 281 279 279 281 284 287 288 288 286 282 278 275 270 265 262 261 263 267 268 265 261 257 253 251 250 247 247 243 240 243 246 250 252 253 255 257 259 262 261 260 262 264 264 264 267 265 263 264 265 267 269 271 273 274 276 277 274 271 270 268 265 261 258
287 287 286 289 290 292 298 288 291 301 298 295 294 293 290 286 291 298 299 299 297 295 290 282 284 291 293 288 282 282 282 283 285 287 288 288 290 292 291 291 291 289 286 283 278 274 272 270 267 263 262 263 265 267 265 260 255 252 250 248 248 247 243 242 243 246 250 252 253 254 257 260 260 260 261 261 262 264 265 262 259 264 266 266 267 267 268 268 267 269 269 269 269 271 272 270 266
289 288 289 291 288 292 296 291 295 300 294 289 288 292 293 288 291 296 296 296 292 286 280 279 285 291 291 285 281 284 287 289 293 295 295 297 298 297 295 293 291 288 285 282 278 274 271 270 270 269 267 264 262 264 264 261 254 250 250 249 249 249 245 243 243 245 247 251 253 253 255 257 257 258 260 260 261 263 264 263 262 266 267 265 264 263 262 262 261 262 263 264 267 271 273 273 272
289 291 290 287 288 293 296 294 296 296 295 291 284 286 287 285 288 289 289 289 287 282 276 278 285 289 288 283 282 285 291 298 302 306 309 310 311 308 303 299 293 289 284 280 278 276 273 270 270 271 272 271 270 268 266 263 255 247 247 248 249 248 245 243 244 246 247 249 253 253 254 256 255 255 258 259 260 260 261 263 264 266 266 262 258 257 259 261 259 257 258 261 265 267 268 268 270
291 294 288 281 286 294 294 292 290 293 297 294 289 289 280 278 280 276 277 279 280 283 284 286 287 287 287 286 289 293 298 305 309 315 321 323 324 320 315 314 310 304 296 288 284 280 277 274 272 270 271 272 274 272 269 267 261 251 244 244 247 247 245 243 243 245 246 248 250 251 252 253 253 254 255 256 257 256 256 257 257 259 261 260 256 253 256 258 257 255 257 260 261 262 263 264 267
295 295 288 282 283 287 286 286 290 297 299 295 296 290 262 260 267 265 265 268 271 280 289 296 296 294 295 297 303 309 313 317 317 318 321 324 327 326 326 328 327 325 318 309 302 298 292 286 280 275 272 271 271 271 271 270 268 262 252 246 245 246 246 244 242 243 246 248 248 249 250 251 251 251 252 254 254 254 256 256 254 255 257 259 257 254 255 255 253 253 255 256 258 260 261 261 263
295 285 279 280 286 291 290 291 297 302 299 286 291 303 250 241 252 256 255 257 263 278 288 293 295 296 302 307 312 318 322 325 325 325 325 326 326 325 324 323 324 325 325 325 323 321 317 309 298 287 281 277 274 273 271 270 271 270 265 257 251 247 244 242 241 241 243 245 245 246 247 248 249 248 248 251 252 252 253 254 253 253 253 255 256 255 257 255 249 249 253 254 255 257 257 256 257
291 279 280 286 292 296 297 299 298 295 293 267 241 280 267 233 235 241 241 248 262 279 286 287 290 295 303 311 318 322 325 327 327 329 328 326 324 322 321 319 320 323 324 327 327 325 323 320 315 305 294 286 282 279 276 273 271 271 270 267 261 256 250 245 242 240 239 239 240 243 244 244 245 247 247 247 248 249 249 249 249 251 251 252 253 253 256 255 249 247 250 251 252 252 251 253 254
286 284 292 295 296 297 298 300 291 284 290 281 268 264 258 243 230 230 229 240 263 272 278 284 291 301 309 316 323 326 329 332 332 332 330 330 329 327 325 323 322 324 325 325 325 324 323 322 319 315 309 299 290 285 282 279 276 272 271 269 267 265 261 255 250 246 242 240 240 242 244 244 244 244 245 246 246 247 248 247 247 248 249 249 249 249 251 253 249 246 246 247 249 250 249 251 252
291 298 303 300 299 299 298 295 286 285 287 284 273 234 240 247 215 220 227 238 258 264 270 283 295 307 316 321 327 332 334 336 337 336 337 336 336 334 331 330 328 326 324 323 322 322 321 320 317 315 312 309 302 294 288 284 281 278 275 271 269 268 267 265 261 257 252 248 245 244 244 245 245 245 245 246 247 247 247 247 247 248 248 247 247 247 247 249 247 244 243 244 246 248 249 249 250
309 314 313 307 307 307 302 292 282 278 271 277 264 202 220 256 181 199 227 235 252 263 274 293 302 308 313 316 321 327 331 334 335 336 337 336 335 334 333 333 331 329 326 324 323 321 319 316 313 311 309 307 306 304 299 293 289 284 280 276 273 271 269 268 267 265 262 258 255 252 250 248 247 247 247 247 247 248 248 248 248 249 249 248 247 247 246 247 247 247 246 244 244 246 248 249 250
321 320 320 319 315 307 298 291 279 269 256 260 234 195 228 268 173 192 225 237 260 284 294 302 304 304 307 309 314 320 324 327 328 328 329 329 330 330 330 330 329 329 328 327 325 323 321 317 313 309 307 305 304 304 304 302 299 294 289 284 280 276 273 271 270 268 267 265 263 261 259 256 252 250 249 248 247 248 248 249 249 250 250 249 249 249 249 249 249 249 249 248 247 247 248 250 251
325 329 333 326 314 290 267 259 227 248 258 167 148 179 233 245 206 217 244 264 282 297 302 300 298 300 302 308 315 320 322 323 322 322 321 321 321 320 320 321 322 324 326 326 326 324 323 321 317 313 309 306 302 301 301 301 301 299 296 292 289 285 281 277 274 272 271 269 268 266 264 263 260 258 256 255 254 251 250 250 250 249 250 250 250 250 251 252 252 251 251 251 250 250 251 251 253
336 340 339 321 308 289 261 246 230 268 297 112 63 351 273 261 266 264 269 282 293 299 300 294 293 296 300 308 315 317 318 318 317 317 316 314 314 313 312 312 313 314 316 318 320 322 322 321 319 316 313 310 306 302 300 299 298 297 296 294 292 290 287 284 281 277 275 273 271 269 268 266 264 263 262 262 261 259 257 255 254 253 252 251 251 251 251 252 252 252 252 252 252 252 253 254 256
335 335 333 314 312 310 285 284 288 284 292 325 316 315 288 269 266 273 284 295 301 300 296 291 290 295 304 311 313 314 315 315 315 314 313 312 310 310 310 309 309 308 309 310 311 313 314 315 314 314 313 312 309 305 301 299 297 296 295 293 291 289 287 285 284 282 279 276 274 271 270 267 266 265 263 263 263 263 262 261 260 259 258 256 256 255 255 256 256 255 255 255 256 256 257 258 260
328 312 323 312 290 282 283 292 302 297 297 302 302 295 286 274 268 286 297 301 302 298 292 291 293 304 314 316 317 318 318 318 317 315 314 312 311 311 311 310 310 309 308 307 307 306 307 307 308 308 308 308 307 305 302 299 297 296 295 294 291 289 286 284 282 281 280 278 276 274 271 270 268 266 265 264 264 263 262 262 262 261 261 261 260 260 260 260 260 260 260 260 261 261 262 262 263
316 304 320 299 254 262 278 284 288 293 299 295 282 266 268 276 280 287 294 297 301 300 296 298 303 309 315 318 320 322 322 321 320 319 318 316 315 315 314 314 312 310 309 307 306 306 305 304 303 302 302 302 302 302 301 298 295 293 292 291 290 289 287 285 283 281 280 278 277 275 274 272 270 269 268 267 265 264 263 262 261 261 261 261 261 261 261 261 261 261 261 261 261 262 262 262 263
298 304 305 252 259 281 280 285 286 280 281 280 278 280 283 285 283 285 292 299 302 306 307 308 310 314 318 319 320 322 324 325 324 323 322 320 319 319 316 315 313 310 309 308 308 307 305 303 302 301 300 299 299 298 298 297 296 293 289 286 285 285 284 283 282 281 281 280 278 277 276 274 272 271 270 269 267 266 265 263 262 262 261 261 260 260 261 261 261 261 261 261 261 261 261 261 262
301 302 284 267 283 287 265 276 294 283 278 283 290 294 297 297 286 285 307 317 308 312 314 312 314 319 323 322 321 322 324 325 325 324 323 321 320 319 317 315 312 310 310 310 311 310 307 305 302 300 300 299 298 297 296 296 295 294 291 287 283 281 280 279 279 279 279 279 279 278 277 276 274 273 271 270 269 267 266 265 263 262 261 261 260 259 260 260 260 260 260 260 261 261 261 261 261
307 300 284 283 293 288 270 276 300 301 288 286 295 297 300 309 322 326 335 329 311 312 318 319 320 322 323 322 322 321 321 322 322 321 320 320 320 318 317 316 315 314 313 312 312 311 310 307 304 302 301 299 299 298 296 296 295 294 293 291 287 283 280 278 277 277 276 275 275 275 275 275 274 273 272 271 270 268 267 266 265 264 262 261 260 259 259 259 259 258 258 258 259 259 260 260 260
317 313 285 266 275 293 296 293 295 296 286 289 297 298 310 13 64 333 314 314 310 313 320 323 324 324 323 322 321 320 321 321 319 318 319 318 317 316 315 316 316 316 316 315 314 312 310 308 306 305 303 302 300 299 297 296 294 293 292 291 290 287 284 280 277 276 275 274 273 273 272 272 272 272 271 270 269 268 267 266 266 265 263 262 261 260 259 259 258 258 258 257 257 257 258 258 259
307 320 295 312 318 310 296 285 277 267 276 295 295 292 310 5 311 296 306 313 309 310 317 322 323 324 322 321 320 320 319 319 319 320 319 317 315 314 314 314 315 315 315 315 314 313 311 309 308 307 305 304 302 301 299 297 295 293 291 290 289 288 287 284 281 277 275 274 274 273 271 270 269 269 269 269 268 267 266 265 264 264 263 263 262 261 260 259 258 258 257 257 257 257 257 258 258
260 254 280 322 330 321 302 290 278 261 275 289 287 287 293 292 291 294 303 309 310 313 316 319 320 321 320 320 320 320 319 320 320 320 318 317 314 313 314 314 314 313 313 312 312 312 311 310 309 308 307 305 303 302 300 298 296 293 291 290 288 287 286 285 284 281 278 276 274 274 273 271 269 268 267 267 266 266 265 264 263 262 262 262 261 261 260 260 259 258 257 257 256 256 257 257 258